Time,TemperatureF,DewpointF,PressureIn,WindDirection,WindDirectionDegrees,WindSpeedMPH,WindSpeedGustMPH,Humidity,HourlyPrecipIn,Conditions,Clouds,dailyrainin,SolarRadiationWatts/m^2,SoftwareType,DateUTC
2013-12-18 00:00:00,73.2,69.8,29.90,North,-999,0.0,0.0,89,0.00,,,-99.99,0,WeatherLink 5.4,2013-12-18 04:00:00,
2013-12-18 00:10:00,73.0,69.6,29.90,North,-999,0.0,0.0,89,0.00,,,-99.99,0,WeatherLink 5.4,2013-12-18 04:10:00,
2013-12-18 00:20:00,73.0,69.6,29.90,North,-999,0.0,0.0,89,0.00,,,-99.99,0,WeatherLink 5.4,2013-12-18 04:20:00,
2013-12-18 00:30:00,73.0,69.6,29.90,North,-999,0.0,0.0,89,0.00,,,-99.99,0,WeatherLink 5.4,2013-12-18 04:30:00,
2013-12-18 00:40:00,72.8,69.4,29.90,North,-999,0.0,0.0,89,0.00,,,-99.99,0,WeatherLink 5.4,2013-12-18 04:40:00,
2013-12-18 00:50:00,72.7,69.6,29.90,North,-999,0.0,0.0,90,0.00,,,-99.99,0,WeatherLink 5.4,2013-12-18 04:50:00,
2013-12-18 01:00:00,72.6,69.5,29.89,North,-999,0.0,0.0,90,0.00,,,-99.99,0,WeatherLink 5.4,2013-12-18 05:00:00,
2013-12-18 01:10:00,72.5,69.4,29.89,North,-999,0.0,0.0,90,0.00,,,-99.99,0,WeatherLink 5.4,2013-12-18 05:10:00,
2013-12-18 01:20:00,72.3,69.2,29.89,North,-999,0.0,0.0,90,0.00,,,-99.99,0,WeatherLink 5.4,2013-12-18 05:20:00,
2013-12-18 01:30:00,72.3,69.2,29.89,North,-999,0.0,0.0,90,0.00,,,-99.99,0,WeatherLink 5.4,2013-12-18 05:30:00,
2013-12-18 01:40:00,72.3,69.2,29.89,North,-999,0.0,0.0,90,0.00,,,-99.99,0,WeatherLink 5.4,2013-12-18 05:40:00,
2013-12-18 01:50:00,72.2,69.1,29.89,North,-999,0.0,0.0,90,0.00,,,-99.99,0,WeatherLink 5.4,2013-12-18 05:50:00,
2013-12-18 02:00:00,72.1,69.0,29.88,North,-999,0.0,0.0,90,0.00,,,-99.99,0,WeatherLink 5.4,2013-12-18 06:00:00,
2013-12-18 02:10:00,72.0,69.2,29.88,North,-999,0.0,0.0,91,0.00,,,-99.99,0,WeatherLink 5.4,2013-12-18 06:10:00,
2013-12-18 02:20:00,72.0,69.2,29.88,North,-999,0.0,0.0,91,0.00,,,-99.99,0,WeatherLink 5.4,2013-12-18 06:20:00,
2013-12-18 02:30:00,72.0,69.2,29.88,North,-999,0.0,0.0,91,0.00,,,-99.99,0,WeatherLink 5.4,2013-12-18 06:30:00,
2013-12-18 02:40:00,72.0,69.5,29.88,North,-999,0.0,0.0,92,0.02,,,-99.99,0,WeatherLink 5.4,2013-12-18 06:40:00,
2013-12-18 02:50:00,72.2,69.7,29.88,North,-999,0.0,0.0,92,0.06,,,-99.99,0,WeatherLink 5.4,2013-12-18 06:50:00,
2013-12-18 03:00:00,72.5,70.0,29.87,North,-999,0.0,0.0,92,0.06,,,-99.99,0,WeatherLink 5.4,2013-12-18 07:00:00,
2013-12-18 03:10:00,72.7,70.2,29.87,North,-999,0.0,0.0,92,0.06,,,-99.99,0,WeatherLink 5.4,2013-12-18 07:10:00,
2013-12-18 03:20:00,72.7,70.2,29.87,North,-999,0.0,0.0,92,0.06,,,-99.99,0,WeatherLink 5.4,2013-12-18 07:20:00,
2013-12-18 03:30:00,72.7,70.2,29.87,North,-999,0.0,0.0,92,0.06,,,-99.99,0,WeatherLink 5.4,2013-12-18 07:30:00,
2013-12-18 03:40:00,72.6,70.1,29.87,North,-999,0.0,0.0,92,0.04,,,-99.99,0,WeatherLink 5.4,2013-12-18 07:40:00,
2013-12-18 03:50:00,72.5,70.0,29.88,North,-999,0.0,0.0,92,0.00,,,-99.99,0,WeatherLink 5.4,2013-12-18 07:50:00,
2013-12-18 04:00:00,72.3,70.2,29.88,North,-999,0.0,0.0,93,0.00,,,-99.99,0,WeatherLink 5.4,2013-12-18 08:00:00,
2013-12-18 04:10:00,72.5,70.4,29.88,North,-999,0.0,0.0,93,0.00,,,-99.99,0,WeatherLink 5.4,2013-12-18 08:10:00,
2013-12-18 04:20:00,72.4,70.3,29.87,North,-999,0.0,0.0,93,0.00,,,-99.99,0,WeatherLink 5.4,2013-12-18 08:20:00,
2013-12-18 04:30:00,72.2,70.1,29.88,North,-999,0.0,0.0,93,0.00,,,-99.99,0,WeatherLink 5.4,2013-12-18 08:30:00,
2013-12-18 04:40:00,72.1,70.0,29.88,North,-999,0.0,0.0,93,0.00,,,-99.99,0,WeatherLink 5.4,2013-12-18 08:40:00,
2013-12-18 04:50:00,71.9,69.8,29.88,North,-999,0.0,0.0,93,0.00,,,-99.99,0,WeatherLink 5.4,2013-12-18 08:50:00,
2013-12-18 05:00:00,71.7,69.6,29.88,North,-999,0.0,0.0,93,0.00,,,-99.99,0,WeatherLink 5.4,2013-12-18 09:00:00,
2013-12-18 05:10:00,71.5,69.4,29.88,North,-999,0.0,0.0,93,0.00,,,-99.99,0,WeatherLink 5.4,2013-12-18 09:10:00,
2013-12-18 05:20:00,71.5,69.4,29.88,North,-999,0.0,0.0,93,0.00,,,-99.99,0,WeatherLink 5.4,2013-12-18 09:20:00,
2013-12-18 05:30:00,71.3,69.2,29.89,North,-999,0.0,0.0,93,0.00,,,-99.99,0,WeatherLink 5.4,2013-12-18 09:30:00,
2013-12-18 05:40:00,71.3,69.2,29.89,North,-999,0.0,0.0,93,0.00,,,-99.99,0,WeatherLink 5.4,2013-12-18 09:40:00,
2013-12-18 05:50:00,71.1,69.0,29.89,North,-999,0.0,0.0,93,0.00,,,-99.99,0,WeatherLink 5.4,2013-12-18 09:50:00,
2013-12-18 06:00:00,71.1,69.0,29.89,North,-999,0.0,0.0,93,0.00,,,-99.99,0,WeatherLink 5.4,2013-12-18 10:00:00,
2013-12-18 06:10:00,70.9,68.8,29.89,North,-999,0.0,0.0,93,0.00,,,-99.99,0,WeatherLink 5.4,2013-12-18 10:10:00,
2013-12-18 06:20:00,70.9,68.8,29.90,North,-999,0.0,0.0,93,0.00,,,-99.99,0,WeatherLink 5.4,2013-12-18 10:20:00,
2013-12-18 06:30:00,70.9,68.8,29.90,North,-999,0.0,0.0,93,0.00,,,-99.99,0,WeatherLink 5.4,2013-12-18 10:30:00,
2013-12-18 06:40:00,70.8,69.0,29.90,North,-999,0.0,0.0,94,0.00,,,-99.99,0,WeatherLink 5.4,2013-12-18 10:40:00,
2013-12-18 06:50:00,70.8,69.0,29.91,North,-999,0.0,0.0,94,0.00,,,-99.99,2,WeatherLink 5.4,2013-12-18 10:50:00,
2013-12-18 07:00:00,70.8,69.0,29.91,North,-999,0.0,0.0,94,0.00,,,-99.99,7,WeatherLink 5.4,2013-12-18 11:00:00,
2013-12-18 07:10:00,71.0,69.2,29.91,North,-999,0.0,0.0,94,0.00,,,-99.99,14,WeatherLink 5.4,2013-12-18 11:10:00,
2013-12-18 07:20:00,71.5,69.7,29.92,East,90,2.0,8.0,94,0.00,,,-99.99,15,WeatherLink 5.4,2013-12-18 11:20:00,
2013-12-18 07:30:00,71.8,69.7,29.93,East,90,3.0,8.0,93,0.00,,,-99.99,20,WeatherLink 5.4,2013-12-18 11:30:00,
2013-12-18 07:40:00,72.0,69.5,29.93,ESE,112,1.0,7.0,92,0.00,,,-99.99,28,WeatherLink 5.4,2013-12-18 11:40:00,
2013-12-18 07:50:00,72.1,69.6,29.93,SE,135,1.0,7.0,92,0.00,,,-99.99,37,WeatherLink 5.4,2013-12-18 11:50:00,
2013-12-18 08:00:00,72.2,69.4,29.94,South,180,0.0,3.0,91,0.00,,,-99.99,53,WeatherLink 5.4,2013-12-18 12:00:00,
2013-12-18 08:10:00,72.5,69.4,29.94,North,-999,0.0,0.0,90,0.00,,,-99.99,85,WeatherLink 5.4,2013-12-18 12:10:00,
2013-12-18 08:20:00,72.9,69.8,29.94,North,-999,0.0,0.0,90,0.00,,,-99.99,125,WeatherLink 5.4,2013-12-18 12:20:00,
2013-12-18 08:30:00,73.2,70.1,29.95,North,-999,0.0,0.0,90,0.00,,,-99.99,123,WeatherLink 5.4,2013-12-18 12:30:00,
2013-12-18 08:40:00,73.4,69.6,29.95,SE,135,0.0,8.0,88,0.00,,,-99.99,125,WeatherLink 5.4,2013-12-18 12:40:00,
2013-12-18 08:50:00,73.5,69.4,29.96,SE,135,2.0,8.0,87,0.00,,,-99.99,76,WeatherLink 5.4,2013-12-18 12:50:00,
2013-12-18 09:00:00,73.8,69.7,29.96,ENE,67,0.0,3.0,87,0.00,,,-99.99,128,WeatherLink 5.4,2013-12-18 13:00:00,
2013-12-18 09:10:00,74.0,69.9,29.96,North,-999,0.0,0.0,87,0.00,,,-99.99,195,WeatherLink 5.4,2013-12-18 13:10:00,
2013-12-18 09:20:00,74.2,70.1,29.96,North,-999,0.0,0.0,87,0.01,,,-99.99,178,WeatherLink 5.4,2013-12-18 13:20:00,
2013-12-18 09:30:00,74.5,70.0,29.96,North,-999,0.0,0.0,86,0.01,,,-99.99,203,WeatherLink 5.4,2013-12-18 13:30:00,
2013-12-18 09:40:00,74.8,69.6,29.96,North,-999,0.0,0.0,84,0.01,,,-99.99,238,WeatherLink 5.4,2013-12-18 13:40:00,
2013-12-18 09:50:00,75.0,69.8,29.96,North,-999,0.0,0.0,84,0.01,,,-99.99,200,WeatherLink 5.4,2013-12-18 13:50:00,
2013-12-18 10:00:00,75.4,69.9,29.96,North,-999,0.0,0.0,83,0.01,,,-99.99,225,WeatherLink 5.4,2013-12-18 14:00:00,
2013-12-18 10:10:00,75.7,69.8,29.96,North,-999,0.0,0.0,82,0.01,,,-99.99,350,WeatherLink 5.4,2013-12-18 14:10:00,
2013-12-18 10:20:00,76.0,69.4,29.96,North,-999,0.0,0.0,80,0.00,,,-99.99,501,WeatherLink 5.4,2013-12-18 14:20:00,
2013-12-18 10:30:00,76.7,69.3,29.95,North,-999,0.0,0.0,78,0.00,,,-99.99,340,WeatherLink 5.4,2013-12-18 14:30:00,
2013-12-18 10:40:00,77.5,69.7,29.95,North,-999,0.0,0.0,77,0.00,,,-99.99,647,WeatherLink 5.4,2013-12-18 14:40:00,
2013-12-18 11:00:00,79.9,70.5,29.94,North,-999,0.0,0.0,73,0.00,,,-99.99,710,WeatherLink 5.4,2013-12-18 15:00:00,
2013-12-18 11:10:00,81.1,70.4,29.94,ESE,112,1.0,7.0,70,0.00,,,-99.99,774,WeatherLink 5.4,2013-12-18 15:10:00,
2013-12-18 11:20:00,81.4,71.1,29.94,East,90,2.0,8.0,71,0.00,,,-99.99,815,WeatherLink 5.4,2013-12-18 15:20:00,
2013-12-18 11:30:00,81.3,71.4,29.93,East,90,0.0,6.0,72,0.00,,,-99.99,239,WeatherLink 5.4,2013-12-18 15:30:00,
2013-12-18 11:40:00,81.1,71.6,29.93,North,-999,0.0,0.0,73,0.00,,,-99.99,196,WeatherLink 5.4,2013-12-18 15:40:00,
2013-12-18 11:50:00,81.2,71.3,29.92,East,90,1.0,11.0,72,0.00,,,-99.99,380,WeatherLink 5.4,2013-12-18 15:50:00,
2013-12-18 12:00:00,81.4,73.1,29.92,ENE,67,0.0,3.0,76,0.00,,,-99.99,373,WeatherLink 5.4,2013-12-18 16:00:00,
2013-12-18 12:10:00,81.7,72.6,29.92,ENE,67,0.0,3.0,74,0.00,,,-99.99,780,WeatherLink 5.4,2013-12-18 16:10:00,
2013-12-18 12:20:00,82.0,72.5,29.91,North,-999,0.0,0.0,73,0.00,,,-99.99,709,WeatherLink 5.4,2013-12-18 16:20:00,
2013-12-18 12:30:00,82.1,72.2,29.90,ENE,67,0.0,1.0,72,0.00,,,-99.99,230,WeatherLink 5.4,2013-12-18 16:30:00,
2013-12-18 12:40:00,82.4,70.8,29.90,East,90,1.0,8.0,68,0.00,,,-99.99,891,WeatherLink 5.4,2013-12-18 16:40:00,
2013-12-18 12:50:00,83.1,71.0,29.89,East,90,2.0,13.0,67,0.00,,,-99.99,190,WeatherLink 5.4,2013-12-18 16:50:00,
2013-12-18 13:00:00,82.7,70.6,29.88,East,90,3.0,12.0,67,0.00,,,-99.99,541,WeatherLink 5.4,2013-12-18 17:00:00,
2013-12-18 13:10:00,83.1,70.1,29.88,East,90,1.0,8.0,65,0.00,,,-99.99,855,WeatherLink 5.4,2013-12-18 17:10:00,
2013-12-18 13:20:00,83.9,70.4,29.88,East,90,3.0,12.0,64,0.00,,,-99.99,185,WeatherLink 5.4,2013-12-18 17:20:00,
2013-12-18 13:30:00,84.2,70.7,29.87,ENE,67,3.0,12.0,64,0.00,,,-99.99,858,WeatherLink 5.4,2013-12-18 17:30:00,
2013-12-18 13:40:00,84.1,71.1,29.87,East,90,3.0,11.0,65,0.00,,,-99.99,513,WeatherLink 5.4,2013-12-18 17:40:00,
2013-12-18 13:50:00,83.7,70.7,29.87,East,90,5.0,13.0,65,0.00,,,-99.99,342,WeatherLink 5.4,2013-12-18 17:50:00,
2013-12-18 14:00:00,83.1,70.1,29.87,East,90,2.0,11.0,65,0.00,,,-99.99,219,WeatherLink 5.4,2013-12-18 18:00:00,
2013-12-18 14:10:00,82.9,69.5,29.87,East,90,3.0,12.0,64,0.00,,,-99.99,278,WeatherLink 5.4,2013-12-18 18:10:00,
2013-12-18 14:20:00,82.9,69.0,29.86,East,90,3.0,12.0,63,0.00,,,-99.99,333,WeatherLink 5.4,2013-12-18 18:20:00,
2013-12-18 14:30:00,82.9,69.5,29.86,East,90,3.0,12.0,64,0.00,,,-99.99,367,WeatherLink 5.4,2013-12-18 18:30:00,
2013-12-18 14:40:00,82.9,69.9,29.86,East,90,3.0,10.0,65,0.00,,,-99.99,325,WeatherLink 5.4,2013-12-18 18:40:00,
2013-12-18 14:50:00,82.6,70.5,29.86,ENE,67,4.0,13.0,67,0.00,,,-99.99,214,WeatherLink 5.4,2013-12-18 18:50:00,
2013-12-18 15:00:00,82.0,70.4,29.86,East,90,4.0,13.0,68,0.00,,,-99.99,231,WeatherLink 5.4,2013-12-18 19:00:00,
2013-12-18 15:10:00,82.0,70.8,29.86,East,90,2.0,11.0,69,0.00,,,-99.99,253,WeatherLink 5.4,2013-12-18 19:10:00,
2013-12-18 15:20:00,82.0,70.0,29.86,ENE,67,2.0,10.0,67,0.00,,,-99.99,121,WeatherLink 5.4,2013-12-18 19:20:00,
2013-12-18 15:30:00,81.4,68.5,29.86,ENE,67,1.0,8.0,65,0.00,,,-99.99,75,WeatherLink 5.4,2013-12-18 19:30:00,
2013-12-18 15:40:00,81.4,67.6,29.86,ESE,112,3.0,10.0,63,0.00,,,-99.99,379,WeatherLink 5.4,2013-12-18 19:40:00,
2013-12-18 15:50:00,82.2,67.4,29.86,East,90,3.0,11.0,61,0.00,,,-99.99,368,WeatherLink 5.4,2013-12-18 19:50:00,
2013-12-18 16:00:00,82.6,67.3,29.86,ENE,67,2.0,13.0,60,0.00,,,-99.99,246,WeatherLink 5.4,2013-12-18 20:00:00,
2013-12-18 16:10:00,82.4,66.6,29.86,East,90,2.0,10.0,59,0.00,,,-99.99,229,WeatherLink 5.4,2013-12-18 20:10:00,
2013-12-18 16:20:00,82.2,66.9,29.85,East,90,2.0,11.0,60,0.00,,,-99.99,278,WeatherLink 5.4,2013-12-18 20:20:00,
2013-12-18 16:30:00,82.0,67.7,29.85,East,90,1.0,6.0,62,0.00,,,-99.99,203,WeatherLink 5.4,2013-12-18 20:30:00,
2013-12-18 16:40:00,81.9,67.6,29.85,ENE,67,2.0,12.0,62,0.00,,,-99.99,194,WeatherLink 5.4,2013-12-18 20:40:00,
2013-12-18 16:50:00,81.5,67.7,29.86,ENE,67,2.0,8.0,63,0.00,,,-99.99,158,WeatherLink 5.4,2013-12-18 20:50:00,
2013-12-18 17:00:00,81.3,68.0,29.86,East,90,2.0,8.0,64,0.00,,,-99.99,118,WeatherLink 5.4,2013-12-18 21:00:00,
2013-12-18 17:10:00,81.1,67.8,29.86,East,90,1.0,10.0,64,0.00,,,-99.99,70,WeatherLink 5.4,2013-12-18 21:10:00,
2013-12-18 17:20:00,80.7,67.8,29.86,East,90,1.0,7.0,65,0.00,,,-99.99,77,WeatherLink 5.4,2013-12-18 21:20:00,
2013-12-18 17:30:00,80.4,67.6,29.86,ENE,67,1.0,10.0,65,0.00,,,-99.99,56,WeatherLink 5.4,2013-12-18 21:30:00,
2013-12-18 17:40:00,80.2,68.2,29.86,East,90,1.0,11.0,67,0.00,,,-99.99,35,WeatherLink 5.4,2013-12-18 21:40:00,
2013-12-18 17:50:00,79.9,68.4,29.87,East,90,1.0,10.0,68,0.00,,,-99.99,13,WeatherLink 5.4,2013-12-18 21:50:00,
2013-12-18 18:00:00,79.6,68.5,29.87,ENE,67,1.0,10.0,69,0.00,,,-99.99,3,WeatherLink 5.4,2013-12-18 22:00:00,
2013-12-18 18:10:00,79.4,68.8,29.87,East,90,2.0,13.0,70,0.00,,,-99.99,2,WeatherLink 5.4,2013-12-18 22:10:00,
2013-12-18 18:20:00,79.4,69.2,29.87,ENE,67,0.0,3.0,71,0.00,,,-99.99,0,WeatherLink 5.4,2013-12-18 22:20:00,
2013-12-18 18:30:00,79.1,68.9,29.88,ENE,67,0.0,7.0,71,0.00,,,-99.99,0,WeatherLink 5.4,2013-12-18 22:30:00,
2013-12-18 18:40:00,78.8,69.0,29.88,ENE,67,0.0,6.0,72,0.00,,,-99.99,0,WeatherLink 5.4,2013-12-18 22:40:00,
2013-12-18 18:50:00,78.6,69.2,29.88,North,-999,0.0,0.0,73,0.00,,,-99.99,0,WeatherLink 5.4,2013-12-18 22:50:00,
2013-12-18 19:00:00,78.5,69.5,29.89,ENE,67,0.0,5.0,74,0.00,,,-99.99,0,WeatherLink 5.4,2013-12-18 23:00:00,
2013-12-18 19:10:00,78.3,69.3,29.89,North,-999,0.0,0.0,74,0.00,,,-99.99,0,WeatherLink 5.4,2013-12-18 23:10:00,
2013-12-18 19:20:00,78.1,69.5,29.89,East,90,1.0,6.0,75,0.00,,,-99.99,0,WeatherLink 5.4,2013-12-18 23:20:00,
2013-12-18 19:30:00,78.1,69.5,29.89,North,-999,0.0,0.0,75,0.00,,,-99.99,0,WeatherLink 5.4,2013-12-18 23:30:00,
2013-12-18 19:40:00,77.9,69.7,29.89,North,-999,0.0,0.0,76,0.00,,,-99.99,0,WeatherLink 5.4,2013-12-18 23:40:00,
2013-12-18 19:50:00,77.7,69.5,29.90,North,-999,0.0,0.0,76,0.00,,,-99.99,0,WeatherLink 5.4,2013-12-18 23:50:00,
2013-12-18 20:00:00,77.7,70.3,29.90,North,-999,0.0,0.0,78,0.00,,,-99.99,0,WeatherLink 5.4,2013-12-19 00:00:00,
2013-12-18 20:10:00,77.6,70.6,29.90,North,-999,0.0,0.0,79,0.00,,,-99.99,0,WeatherLink 5.4,2013-12-19 00:10:00,
2013-12-18 20:20:00,77.4,70.4,29.91,North,-999,0.0,0.0,79,0.00,,,-99.99,0,WeatherLink 5.4,2013-12-19 00:20:00,
2013-12-18 20:30:00,77.2,70.5,29.91,North,-999,0.0,0.0,80,0.00,,,-99.99,0,WeatherLink 5.4,2013-12-19 00:30:00,
2013-12-18 20:40:00,77.2,70.5,29.91,North,-999,0.0,0.0,80,0.00,,,-99.99,0,WeatherLink 5.4,2013-12-19 00:40:00,
2013-12-18 20:50:00,77.2,70.9,29.91,North,-999,0.0,0.0,81,0.01,,,-99.99,0,WeatherLink 5.4,2013-12-19 00:50:00,
2013-12-18 21:00:00,76.9,71.0,29.92,North,-999,0.0,0.0,82,0.01,,,-99.99,0,WeatherLink 5.4,2013-12-19 01:00:00,
2013-12-18 21:10:00,76.6,71.0,29.92,North,-999,0.0,0.0,83,0.01,,,-99.99,0,WeatherLink 5.4,2013-12-19 01:10:00,
2013-12-18 21:20:00,76.2,71.0,29.92,North,-999,0.0,0.0,84,0.01,,,-99.99,0,WeatherLink 5.4,2013-12-19 01:20:00,
2013-12-18 21:30:00,75.8,71.0,29.93,North,-999,0.0,0.0,85,0.01,,,-99.99,0,WeatherLink 5.4,2013-12-19 01:30:00,
2013-12-18 21:40:00,75.5,71.0,29.93,North,-999,0.0,0.0,86,0.01,,,-99.99,0,WeatherLink 5.4,2013-12-19 01:40:00,
2013-12-18 21:50:00,75.3,71.2,29.93,North,-999,0.0,0.0,87,0.00,,,-99.99,0,WeatherLink 5.4,2013-12-19 01:50:00,
2013-12-18 22:00:00,75.1,71.0,29.93,North,-999,0.0,0.0,87,0.00,,,-99.99,0,WeatherLink 5.4,2013-12-19 02:00:00,
2013-12-18 22:10:00,75.0,71.2,29.93,North,-999,0.0,0.0,88,0.00,,,-99.99,0,WeatherLink 5.4,2013-12-19 02:10:00,
2013-12-18 22:20:00,74.7,70.9,29.93,North,-999,0.0,0.0,88,0.00,,,-99.99,0,WeatherLink 5.4,2013-12-19 02:20:00,
2013-12-18 22:30:00,74.6,70.8,29.93,North,-999,0.0,0.0,88,0.00,,,-99.99,0,WeatherLink 5.4,2013-12-19 02:30:00,
2013-12-18 22:40:00,74.3,70.5,29.93,North,-999,0.0,0.0,88,0.00,,,-99.99,0,WeatherLink 5.4,2013-12-19 02:40:00,
2013-12-18 22:50:00,74.0,70.2,29.93,North,-999,0.0,0.0,88,0.00,,,-99.99,0,WeatherLink 5.4,2013-12-19 02:50:00,
2013-12-18 23:00:00,73.9,70.5,29.93,North,-999,0.0,0.0,89,0.00,,,-99.99,0,WeatherLink 5.4,2013-12-19 03:00:00,
2013-12-18 23:10:00,73.9,70.5,29.93,North,-999,0.0,0.0,89,0.00,,,-99.99,0,WeatherLink 5.4,2013-12-19 03:10:00,
2013-12-18 23:20:00,73.6,70.2,29.93,North,-999,0.0,0.0,89,0.00,,,-99.99,0,WeatherLink 5.4,2013-12-19 03:20:00,
2013-12-18 23:30:00,73.4,70.0,29.92,North,-999,0.0,0.0,89,0.00,,,-99.99,0,WeatherLink 5.4,2013-12-19 03:30:00,
2013-12-18 23:40:00,73.2,69.8,29.92,North,-999,0.0,0.0,89,0.00,,,-99.99,0,WeatherLink 5.4,2013-12-19 03:40:00,
2013-12-18 23:50:00,73.0,69.9,29.92,North,-999,0.0,0.0,90,0.00,,,-99.99,0,WeatherLink 5.4,2013-12-19 03:50:00,